User: anonymous   Login
Location: Unspecified
(57.6483°N, 3.3184°W)
Time: 09:36:38
(UTC+01:00)
Language:

ITAMSAT 1 - Orbit

View from above orbital plane
View from above orbital plane
View from above satellite
View from above satellite

Ground track
Ground track

The orbit data is extracted from the following two-line orbital elements,

1 22826U 93061D   21128.89856298  .00000001  00000-0  18144-4 0  9991
2 22826  98.9140 145.4519 0009781 132.8537 227.3468 14.30452185440571
Epoch (UTC): 08 May 2021 21:33:55
Eccentricity: 0.0009781
inclination: 98.9140°
perigee height: 783 km
apogee height: 797 km
right ascension of ascending node: 145.4519°
argument of perigee: 132.8537°
revolutions per day: 14.30452185
mean anomaly at epoch: 227.3468°
orbit number at epoch: 44057

The dashed part of the orbit path shows where the satellite is in the earth's shadow,  

DLR